This is the latest recevied weather packets stored in our database for station/object SQ3RAX-13. If no packets are shown the sender has not sent any weather packets the latest 1 day(s).
| Time | Temp. | Humidity | Pressure | Rain* | Wind** | Luminosity | Snow |
|---|---|---|---|---|---|---|---|
| 1778010368 | 15° C | 81% | 1007 hPa | 0 mm | 3.58 m/s, 37° | - | - |
| 1778009767 | 15° C | 81% | 1007 hPa | 0 mm | 3.58 m/s, 37° | - | - |
| 1778009168 | 15° C | 79% | 1007 hPa | 0 mm | 4.92 m/s, 34° | - | - |
| 1778008567 | 16.67° C | 81% | 1007 hPa | 0 mm | 4.92 m/s, 34° | - | - |
| 1778007967 | 16.67° C | 81% | 1007 hPa | 0 mm | 4.92 m/s, 34° | - | - |
| 1778007368 | 16.67° C | 81% | 1007 hPa | 0 mm | 4.92 m/s, 34° | - | - |
| 1778006767 | 16.67° C | 81% | 1007 hPa | 0 mm | 4.92 m/s, 34° | - | - |
| 1778006167 | 16.67° C | 81% | 1007 hPa | 0 mm | 3.58 m/s, 18° | - | - |
| 1778005567 | 17.22° C | 75% | 1007 hPa | 0 mm | 3.58 m/s, 17° | - | - |
| 1778004967 | 17.22° C | 74% | 1007 hPa | 0 mm | 3.58 m/s, 17° | - | - |
| 1778004367 | 17.22° C | 74% | 1007 hPa | 0 mm | 3.58 m/s, 17° | - | - |
| 1778003767 | 17.78° C | 79% | 1007 hPa | 0 mm | 3.58 m/s, 17° | - | - |
| 1778003167 | 17.78° C | 79% | 1007 hPa | 0 mm | 3.58 m/s, 17° | - | - |
| 1778002567 | 17.78° C | 79% | 1007 hPa | 0 mm | 3.58 m/s, 17° | - | - |
| 1778001967 | 18.33° C | 72% | 1007 hPa | 0 mm | 4.47 m/s, 18° | - | - |
| 1778001367 | 18.89° C | 72% | 1007 hPa | 0 mm | 4.47 m/s, 18° | - | - |
| 1778000767 | 19.44° C | 74% | 1006 hPa | 0 mm | 4.47 m/s, 18° | - | - |
| 1778000167 | 19.44° C | 74% | 1006 hPa | 0 mm | 4.47 m/s, 18° | - | - |
| 1777999567 | 19.44° C | 74% | 1006 hPa | 0 mm | 4.47 m/s, 18° | - | - |
| 1777998967 | 20° C | 73% | 1007 hPa | 0 mm | 4.47 m/s, 18° | - | - |
| 1777998367 | 19.44° C | 70% | 1007 hPa | 0 mm | 4.92 m/s, 6° | - | - |
| 1777997767 | 20° C | 70% | 1007 hPa | 0 mm | 4.92 m/s, 6° | - | - |
| 1777997167 | 20° C | 70% | 1007 hPa | 0 mm | 4.92 m/s, 6° | - | - |
| 1777996567 | 20.56° C | 69% | 1007 hPa | 0 mm | 4.92 m/s, 6° | - | - |
| 1777995967 | 20.56° C | 70% | 1007 hPa | 0 mm | 4.92 m/s, 6° | - | - |
* Rain latest hour (hover to see other rain measurements)
** Current wind speed in m/s (hover to see current wind gust speed)